Temperature
15 15 16 16 13 11 13 14 16 17 18 19 20 19 17 17 18 17 17 17 17 16 16 16 16 16 16 16 16 16 16 16 16 16 16 16 16 16 16 16 16 16 15 15 15 15 15 15 15
15 15 15 15 11 12 13 13 15 16 18 19 19 18 17 16 16 16 16 16 16 16 16 16 16 16 16 16 16 16 16 16 16 16 16 16 16 16 16 16 15 15 15 15 15 15 15 15 15
14 15 15 11 11 12 14 15 15 17 19 19 18 17 16 16 15 16 16 16 16 16 16 15 16 16 16 16 16 16 16 16 16 16 16 16 15 15 15 15 15 15 15 15 15 15 15 15 14
14 14 14 10 12 12 13 15 15 16 18 18 17 16 15 15 15 16 16 15 16 16 15 15 15 16 16 16 16 16 16 16 16 16 15 15 15 15 15 15 15 15 15 15 15 15 15 14 14
13 13 11 10 11 12 13 14 15 15 15 16 16 15 14 15 15 15 15 15 15 15 15 15 15 15 15 15 15 16 15 15 15 15 15 15 15 15 15 15 15 15 15 15 15 15 14 14 14
13 11 10 10 11 12 13 15 15 14 14 15 15 14 14 14 15 15 15 15 15 15 15 15 15 15 15 15 15 15 15 15 15 15 15 15 15 15 15 15 15 15 15 15 15 14 14 14 14
11 9 9 10 11 12 13 14 14 13 13 14 14 13 13 13 14 14 14 14 14 14 14 14 14 14 14 15 15 15 15 15 15 15 15 15 15 14 14 14 14 14 14 14 14 14 14 14 14
11 9 10 10 11 11 12 13 13 13 13 13 14 12 12 12 13 13 13 14 14 14 14 14 14 14 14 14 14 14 15 15 15 15 15 14 14 14 14 14 14 14 14 14 14 14 14 14 13
11 8 9 9 10 11 11 12 12 13 12 12 12 12 12 12 12 13 13 13 13 13 13 13 13 14 14 14 14 14 14 14 14 14 14 14 14 14 14 14 14 14 14 14 14 14 14 13 13
10 7 9 10 10 10 11 11 11 11 11 11 11 12 11 11 12 12 12 12 12 12 13 13 13 13 13 13 13 14 14 14 14 14 14 14 14 14 14 14 14 14 13 13 13 13 13 13 13
8 7 8 10 11 11 10 10 11 10 9 10 9 10 11 11 11 11 11 11 12 12 12 12 13 13 13 13 13 13 13 13 13 13 13 13 13 13 14 13 13 13 13 13 13 13 13 13 13
7 8 9 9 10 10 10 10 9 9 9 10 10 10 10 10 10 10 11 11 11 11 12 12 12 12 12 13 13 13 13 13 13 13 13 13 13 13 13 13 13 13 13 13 13 13 13 13 13
7 7 9 9 9 9 9 8 8 8 9 9 9 9 9 9 9 9 10 10 10 11 11 11 12 12 12 12 12 12 12 12 12 12 13 13 13 13 13 13 13 13 13 13 13 13 13 12 12
7 7 8 8 9 9 8 7 7 8 9 9 9 8 9 9 9 9 9 10 10 10 11 11 11 11 11 12 12 12 12 12 12 12 12 12 13 13 13 13 13 12 12 12 12 12 12 12 12
7 6 6 7 8 8 8 6 6 8 8 8 8 8 8 8 8 8 8 9 9 10 10 10 11 11 11 11 11 12 12 12 12 12 12 12 12 12 13 12 12 12 12 12 12 12 12 12 12
5 5 5 6 7 7 7 6 6 7 7 7 7 7 7 7 8 8 8 8 9 9 9 10 10 10 10 10 11 11 11 11 11 12 12 12 12 12 12 12 12 12 12 12 12 12 12 12 11
4 3 4 5 6 6 5 5 6 7 7 6 7 6 7 7 7 7 8 8 8 8 9 9 9 10 10 10 10 11 11 11 11 11 11 12 12 12 12 12 12 12 11 11 11 11 11 11 11
3 3 4 4 5 5 4 4 5 6 6 6 6 6 6 6 7 7 7 7 8 8 8 8 9 9 9 9 10 10 10 10 11 11 11 11 11 12 11 12 12 12 11 11 11 11 11 11 11
3 3 3 4 5 5 4 4 4 5 5 5 5 5 5 6 6 7 7 7 7 7 8 8 8 8 8 9 9 9 10 10 10 10 11 11 11 11 11 11 11 11 11 11 11 11 10 10 10
3 3 3 4 4 4 3 4 4 4 4 5 5 5 5 5 6 6 6 7 7 7 7 7 8 8 8 8 8 9 9 9 10 10 10 10 10 11 11 11 11 11 11 11 10 10 10 10 10
3 2 3 3 3 4 3 3 3 4 4 4 4 5 5 5 5 5 6 6 6 6 7 7 7 7 7 8 8 8 8 9 9 9 10 10 10 10 10 11 11 11 10 10 10 10 10 10 10
2 3 3 3 2 2 3 2 2 3 3 3 3 4 4 4 4 5 5 6 6 6 6 6 7 7 7 7 7 8 8 8 9 9 9 9 9 10 10 10 10 10 10 10 10 10 10 10 9
2 3 3 3 2 1 1 1 1 2 2 2 2 3 3 3 4 4 5 5 5 6 6 6 6 6 6 7 7 7 7 8 8 8 9 9 9 9 9 9 10 10 10 10 10 9 9 9 9
2 2 2 1 0 1 1 1 1 1 1 2 2 2 2 3 3 3 4 4 5 5 5 5 6 6 6 6 7 7 7 7 7 8 8 8 8 9 9 9 9 9 9 9 9 9 9 9 9
1 0 0 0 -0 0 1 1 1 0 1 1 1 1 2 2 2 3 3 4 4 4 5 5 5 5 6 6 6 7 7 7 7 7 8 8 8 8 9 9 9 9 9 9 9 9 9 9 9
-0 -0 -0 0 0 -0 0 0 0 0 1 1 1 1 1 1 1 2 3 3 3 4 4 4 4 5 5 6 6 6 6 6 7 7 7 7 8 8 8 8 8 8 8 8 8 8 8 8 8
-0 -1 -1 -1 -1 -1 -1 -1 -0 0 -0 -0 -0 -0 -0 0 0 1 2 3 3 3 3 4 4 4 5 5 5 5 6 6 6 6 7 7 7 8 8 8 8 8 8 8 8 8 8 8 8
-1 -1 -2 -2 -1 -1 -1 -1 -1 -2 -2 -2 -2 -2 -1 -1 -0 1 1 2 2 2 3 3 3 4 4 4 5 5 5 5 6 6 6 6 7 7 7 7 7 8 8 8 8 8 7 7 7
-2 -2 -2 -2 -2 -2 -1 -1 -2 -2 -2 -3 -2 -2 -2 -2 -1 -0 1 1 2 2 2 3 3 3 4 4 4 4 5 5 5 5 6 6 6 6 7 7 7 7 7 7 7 7 7 7 7
-2 -3 -3 -2 -3 -3 -3 -2 -2 -3 -2 -2 -2 -2 -2 -2 -2 -1 -0 1 1 1 2 2 3 3 3 3 4 4 4 4 5 5 5 5 5 6 6 6 6 7 7 7 7 7 7 7 7
Wind_Speed
11 9 2 4 5 3 4 6 4 2 2 2 1 4 7 5 4 4 2 7 9 11 14 15 15 15 15 14 15 15 15 15 15 16 16 16 16 17 17 16 16 16 17 17 17 17 17 18 18
7 3 4 5 5 3 5 5 5 6 4 1 2 3 5 4 3 6 4 6 11 11 13 14 16 15 15 14 14 15 15 15 15 15 15 15 16 16 16 16 16 16 16 16 16 16 17 17 17
5 1 4 4 5 8 6 5 7 4 3 0 2 3 4 4 4 3 4 10 10 10 12 14 16 15 15 15 14 14 15 15 15 15 15 15 15 16 16 16 16 16 16 16 16 16 16 16 16
2 4 4 3 7 6 5 4 2 2 3 2 3 4 3 3 2 3 8 11 11 8 11 14 15 15 15 15 14 14 14 15 15 15 15 15 15 15 15 15 16 16 16 16 16 15 16 15 15
3 4 3 3 6 5 4 4 2 1 1 2 3 4 2 4 6 8 9 10 11 8 10 13 14 14 14 14 14 14 14 14 14 15 14 15 15 14 15 15 16 16 16 16 15 15 15 16 16
3 3 3 6 7 4 4 4 2 1 1 2 3 4 1 3 7 7 7 7 9 9 9 11 13 13 13 14 14 14 14 14 13 14 14 14 14 14 14 15 15 15 16 15 15 14 15 15 16
3 4 4 5 4 3 3 3 1 2 1 1 1 4 1 2 4 5 6 6 7 8 8 8 10 11 11 12 13 14 14 14 13 13 14 14 14 14 14 15 15 15 15 15 15 14 15 15 16
4 3 2 3 4 3 3 2 0 0 1 1 3 5 2 1 2 5 7 7 7 6 6 6 7 8 8 9 12 13 13 14 13 13 13 14 14 14 14 14 14 14 14 14 14 14 14 15 16
2 2 5 4 4 2 2 1 3 2 2 2 3 2 1 3 5 7 7 6 5 5 4 4 4 5 7 8 10 11 12 13 13 12 13 13 13 13 13 14 14 14 14 14 14 13 14 14 15
2 5 7 2 2 1 1 1 2 2 2 3 4 5 4 4 5 7 7 5 4 4 2 3 3 3 5 7 8 9 9 10 11 11 12 11 11 11 12 13 14 13 13 13 13 13 13 12 12
2 5 3 2 1 1 1 1 1 2 1 1 1 1 2 2 3 5 5 6 5 4 3 2 2 3 3 4 6 6 7 8 10 11 11 10 10 10 11 10 11 11 11 10 11 11 10 10 10
1 4 3 2 2 2 2 1 1 1 4 3 4 4 3 1 1 3 4 4 4 3 3 3 2 2 3 4 5 6 6 6 7 10 12 10 8 8 8 8 8 9 9 9 9 9 9 10 10
4 4 3 3 3 2 1 1 1 2 3 1 3 4 3 2 2 2 3 3 4 4 4 3 2 2 3 3 3 5 5 6 8 9 11 11 8 7 7 7 8 8 8 8 7 8 9 9 9
3 4 4 3 4 2 1 3 1 4 1 1 3 3 4 4 3 1 1 2 3 4 4 3 3 2 2 2 2 4 6 7 8 8 10 11 9 8 8 7 7 7 8 8 8 8 8 7 8
2 2 3 3 3 2 1 3 4 5 1 2 3 3 3 3 3 3 3 3 3 3 3 4 4 3 2 2 2 3 6 7 6 7 10 11 11 10 9 7 6 7 9 9 9 8 8 7 6
1 0 3 3 2 2 2 7 5 3 2 3 3 3 3 3 3 3 2 3 3 2 2 3 3 3 2 2 2 3 5 7 6 8 9 10 11 11 9 7 6 8 9 8 7 5 5 5 5
1 3 4 4 2 1 3 6 5 2 2 3 4 4 3 3 3 3 2 2 3 3 3 3 3 3 3 2 3 3 4 6 6 7 8 9 11 11 9 7 7 10 8 6 6 5 5 6 5
3 3 4 5 2 1 3 7 7 3 3 4 4 4 3 4 5 4 2 2 3 3 3 3 3 3 3 2 2 2 2 3 5 6 7 9 10 10 9 7 8 9 7 5 5 6 5 5 6
3 3 5 6 3 2 5 8 9 5 3 4 4 4 4 5 4 3 2 3 3 3 3 3 3 3 3 3 2 2 2 2 3 3 6 8 9 10 8 7 7 8 6 7 7 6 6 4 5
2 4 4 5 3 3 5 8 7 4 4 4 5 5 4 3 3 3 3 2 3 4 4 4 4 4 4 3 3 2 2 2 2 3 5 8 9 10 9 8 7 7 6 7 7 6 5 3 4
4 4 4 4 5 2 2 6 5 4 2 2 2 2 2 3 3 3 3 3 2 3 3 3 4 4 4 3 3 2 1 1 1 2 3 4 8 10 9 9 9 8 7 8 8 8 7 6 3
5 4 5 4 2 3 1 4 6 4 4 3 4 3 3 3 3 4 4 4 4 4 3 3 3 3 4 4 5 5 3 2 3 2 2 3 6 8 10 9 9 9 7 8 8 6 5 7 5
4 6 5 3 2 3 2 3 6 2 4 5 4 4 4 4 3 4 4 4 3 3 3 2 2 3 3 5 6 6 4 2 2 2 3 3 3 6 8 9 9 8 7 8 8 6 6 6 6
3 3 2 2 2 3 4 4 5 2 5 5 4 4 5 4 4 3 2 2 1 1 2 2 2 2 3 4 5 6 5 3 3 3 3 3 2 3 5 7 8 9 8 8 8 8 8 6 6
4 4 3 3 1 5 2 2 5 5 3 3 3 4 5 4 3 3 2 1 1 2 2 2 3 3 3 4 5 6 6 5 6 5 5 4 3 3 4 4 6 7 8 8 8 7 7 7 7
2 3 3 3 4 4 2 5 4 3 3 3 3 4 5 6 4 3 3 2 2 2 2 2 3 3 3 4 4 5 5 4 4 4 4 4 3 4 4 4 5 8 9 9 8 6 6 6 6
1 1 2 2 1 2 4 4 5 4 6 7 7 7 7 7 6 5 3 2 2 2 2 2 3 3 3 3 4 4 5 4 4 4 3 3 2 2 3 4 4 6 8 9 8 6 7 6 6
1 2 2 2 1 3 5 3 3 5 6 7 8 7 7 8 7 6 4 3 3 2 2 1 2 3 3 3 3 3 4 4 4 4 3 2 2 2 3 4 4 5 6 7 7 6 6 7 6
2 1 1 2 2 3 3 5 2 3 5 5 6 6 6 7 7 6 6 4 3 2 2 2 2 2 2 2 3 3 3 3 3 3 4 3 2 3 4 4 5 6 6 6 7 7 7 8 6
3 3 2 2 3 3 3 5 2 2 4 5 6 7 6 6 6 6 6 5 4 3 2 2 2 2 1 2 2 2 3 2 3 2 2 2 3 3 3 4 5 6 6 6 7 7 7 8 8
Wind_Direction
325 330 43 55 62 65 225 248 241 249 262 257 96 115 121 115 128 144 113 120 124 139 146 146 143 138 133 131 132 130 128 126 123 121 120 119 118 117 115 114 113 110 109 107 105 104 103 102 101
327 343 56 67 115 186 247 244 238 237 228 215 58 87 88 79 73 102 106 129 131 136 143 145 143 140 136 132 131 133 131 128 126 124 121 120 120 119 117 116 115 113 111 108 107 105 103 102 99
325 30 90 99 160 195 213 230 225 254 291 317 64 53 98 109 103 116 143 137 128 129 140 144 142 141 137 134 131 130 132 130 129 126 123 120 119 119 119 117 115 115 114 111 109 107 105 102 97
38 50 65 119 213 221 211 238 235 283 335 7 98 71 63 58 101 121 131 132 128 125 134 143 142 141 139 136 134 132 131 133 131 128 125 122 119 118 120 120 117 116 115 113 112 109 106 101 98
65 88 110 224 231 239 246 281 279 272 285 10 81 97 57 8 67 103 123 132 131 126 130 140 142 142 140 139 139 136 134 132 134 132 129 124 121 121 121 123 122 119 117 115 113 111 107 102 102
68 88 149 219 233 249 264 271 271 263 269 11 73 101 104 62 80 97 112 127 131 130 127 139 140 141 143 143 141 140 136 136 133 136 132 128 125 124 124 123 124 123 121 119 116 112 108 104 103
132 137 190 211 230 245 275 278 191 233 253 309 88 108 103 59 84 104 107 109 114 118 120 125 134 137 141 143 143 140 139 136 136 133 136 133 130 129 127 126 124 125 123 121 118 113 108 106 105
138 133 198 219 212 230 303 315 309 132 237 0 75 121 164 263 90 98 97 97 102 99 103 112 124 132 134 140 144 143 139 135 134 130 131 132 131 130 129 128 128 126 125 124 120 114 112 110 106
99 131 208 213 199 237 341 12 335 334 69 34 36 81 133 120 105 100 94 84 93 94 89 89 95 120 131 138 143 139 139 137 133 130 127 129 128 127 128 129 129 129 128 128 124 118 114 111 107
114 188 212 205 181 211 312 332 318 17 20 15 15 20 56 86 108 114 118 122 126 131 123 105 96 104 134 142 140 139 139 140 136 135 128 128 129 128 130 131 130 129 128 129 126 121 116 111 106
164 198 209 250 260 242 266 301 348 132 255 199 135 19 72 86 114 127 138 147 155 161 151 139 119 114 128 136 140 142 141 141 140 139 137 131 130 128 126 127 128 126 124 123 122 116 113 112 110
221 237 217 254 307 330 287 273 352 194 224 217 170 153 126 145 163 164 162 157 151 155 161 158 133 124 125 138 149 150 145 144 145 148 146 137 130 130 130 128 131 128 125 121 121 117 113 113 113
244 257 257 268 304 306 349 296 240 280 271 212 140 142 161 202 226 215 172 160 156 166 176 171 151 144 137 132 156 157 154 155 154 155 153 147 138 144 140 138 137 134 131 127 125 120 116 113 111
245 251 273 274 274 279 240 289 261 268 255 136 147 172 187 194 208 236 181 165 169 175 181 184 177 163 150 143 155 163 159 157 154 158 161 156 150 150 148 144 141 140 139 135 131 129 123 118 116
278 295 305 278 257 242 173 296 246 249 182 181 197 205 207 207 203 200 210 191 182 185 182 184 180 164 159 158 155 154 158 156 152 157 162 160 157 154 154 150 148 148 144 134 126 123 117 115 113
341 207 257 280 255 253 169 250 261 239 176 206 217 220 217 218 222 215 221 206 185 170 177 187 179 169 169 170 154 143 154 153 153 156 157 159 159 156 153 152 154 150 143 135 131 131 127 125 122
19 220 235 281 255 213 184 249 269 236 188 225 231 222 219 238 258 250 247 216 185 177 171 179 174 171 169 158 141 132 145 149 152 155 155 159 157 155 156 155 152 149 142 138 144 143 139 137 132
240 231 241 252 269 264 245 258 276 253 213 235 242 236 225 235 253 252 243 225 189 179 176 175 177 173 158 138 122 117 123 144 147 152 157 161 158 154 152 153 150 147 146 149 150 147 136 140 139
249 238 254 262 271 266 247 266 275 272 249 248 255 249 241 244 257 255 243 224 190 179 175 176 178 181 168 166 164 161 174 188 166 153 159 164 162 156 152 157 153 151 158 162 154 145 139 131 134
264 250 264 284 288 267 254 270 273 268 241 238 244 248 254 267 288 273 260 231 198 190 191 187 184 190 188 183 184 184 180 190 184 163 160 166 167 162 160 161 162 160 156 155 156 148 146 147 151
274 228 241 267 307 277 265 283 274 279 248 275 280 265 273 259 260 266 269 248 218 208 205 208 199 193 196 176 154 140 114 107 157 185 182 170 170 169 163 165 163 164 164 167 167 162 151 163 174
274 256 264 261 281 279 208 264 274 266 276 293 300 300 290 292 278 263 260 243 224 221 213 208 198 194 191 175 171 167 175 193 211 204 200 186 175 173 168 166 168 166 165 168 172 169 157 161 173
258 282 270 247 229 295 283 221 278 293 267 276 289 301 302 295 284 269 262 244 234 222 212 208 196 198 192 183 180 174 179 200 200 183 178 192 186 172 168 170 171 170 170 169 171 168 162 167 172
297 334 356 47 96 258 238 199 275 263 247 262 280 306 308 304 301 290 281 259 255 230 210 198 195 208 204 190 183 174 178 184 179 178 186 194 193 179 176 177 177 175 174 174 175 175 173 174 171
20 55 23 356 326 253 222 206 254 268 269 261 271 291 313 314 317 315 303 279 274 254 229 208 203 217 216 198 189 183 183 186 191 185 191 191 193 198 197 183 185 180 178 175 173 174 180 177 175
303 124 156 219 237 283 266 231 255 291 336 342 329 332 338 337 327 315 297 270 258 260 243 225 218 226 224 201 195 189 184 189 198 189 189 194 201 204 199 184 189 186 180 178 175 176 180 177 183
90 215 183 160 258 263 259 282 313 352 3 4 2 360 349 339 336 325 310 298 282 257 255 248 230 231 233 211 197 192 187 190 195 189 185 191 198 201 194 191 186 189 186 181 175 182 183 183 189
127 167 91 110 213 260 281 274 285 318 330 344 351 348 340 341 340 337 330 319 308 295 282 276 259 240 236 210 196 194 193 191 193 178 177 192 203 200 199 195 194 187 185 181 180 184 183 185 192
23 35 61 173 207 206 263 274 259 297 316 325 328 332 333 336 338 337 336 325 314 319 314 293 268 259 240 203 196 180 185 182 174 174 181 191 201 198 198 196 195 189 185 183 184 187 184 189 194
171 193 169 186 259 226 230 267 307 327 327 330 329 332 335 337 337 339 339 348 344 331 321 317 311 298 262 218 189 182 172 160 165 176 186 190 200 203 197 196 194 188 187 187 188 188 189 193 197
Height
1514 1515 1516 1519 1522 1532 1531 1524 1515 1511 1510 1507 1506 1506 1508 1511 1515 1521 1519 1518 1520 1522 1525 1528 1530 1532 1534 1536 1537 1539 1540 1541 1542 1544 1545 1546 1547 1548 1549 1550 1551 1552 1552 1553 1554 1555 1555 1556 1556
1513 1515 1517 1518 1527 1536 1530 1519 1513 1509 1507 1507 1507 1507 1508 1511 1513 1515 1516 1518 1521 1523 1525 1528 1530 1532 1534 1535 1537 1539 1540 1542 1543 1544 1545 1547 1548 1549 1550 1551 1552 1553 1554 1555 1555 1556 1557 1557 1558
1512 1514 1516 1519 1526 1527 1521 1513 1509 1507 1506 1506 1507 1508 1509 1512 1513 1515 1516 1518 1521 1523 1525 1527 1530 1532 1533 1535 1537 1539 1540 1542 1543 1544 1546 1547 1548 1549 1550 1551 1553 1553 1554 1556 1556 1557 1558 1559 1559
1512 1514 1516 1521 1521 1517 1513 1508 1507 1506 1506 1506 1507 1510 1512 1514 1515 1515 1517 1519 1521 1523 1525 1527 1529 1531 1533 1535 1537 1539 1540 1542 1543 1545 1546 1547 1548 1550 1551 1552 1553 1554 1555 1556 1558 1559 1559 1560 1561
1511 1513 1518 1522 1518 1514 1510 1507 1506 1507 1507 1507 1508 1510 1512 1514 1514 1515 1517 1519 1520 1522 1525 1527 1529 1531 1533 1535 1537 1538 1540 1541 1543 1545 1546 1547 1549 1550 1551 1553 1554 1555 1556 1557 1558 1559 1560 1561 1562
1511 1512 1521 1521 1515 1511 1509 1507 1507 1507 1507 1508 1508 1510 1513 1514 1514 1515 1517 1519 1521 1522 1524 1526 1529 1531 1532 1534 1536 1538 1539 1541 1542 1544 1546 1547 1549 1550 1552 1553 1554 1556 1557 1558 1559 1560 1561 1562 1563
1510 1514 1517 1516 1514 1511 1509 1507 1508 1507 1507 1509 1509 1511 1513 1514 1514 1515 1516 1519 1520 1522 1524 1526 1528 1530 1532 1534 1535 1537 1539 1540 1542 1544 1545 1547 1548 1550 1552 1553 1555 1556 1557 1558 1560 1561 1562 1563 1564
1508 1512 1514 1515 1512 1510 1508 1507 1508 1508 1508 1509 1509 1510 1512 1513 1514 1514 1516 1518 1520 1522 1523 1525 1527 1529 1530 1532 1534 1536 1538 1539 1541 1543 1545 1547 1548 1550 1551 1553 1555 1556 1557 1559 1560 1561 1562 1563 1565
1507 1514 1515 1512 1511 1509 1508 1507 1508 1508 1508 1508 1509 1510 1511 1512 1512 1513 1515 1516 1518 1520 1522 1524 1526 1528 1529 1531 1533 1535 1537 1539 1540 1542 1544 1546 1548 1549 1551 1553 1554 1556 1557 1559 1560 1561 1563 1564 1565
1506 1512 1509 1508 1508 1508 1507 1507 1508 1508 1508 1508 1508 1509 1510 1511 1511 1511 1512 1514 1516 1518 1520 1522 1524 1526 1528 1530 1531 1533 1535 1537 1539 1541 1543 1545 1547 1549 1550 1552 1554 1556 1558 1559 1560 1562 1563 1564 1565
1506 1508 1507 1506 1506 1506 1506 1507 1507 1507 1508 1508 1507 1507 1508 1510 1510 1510 1511 1513 1514 1516 1518 1520 1522 1524 1526 1528 1530 1531 1533 1535 1537 1539 1541 1543 1546 1548 1550 1551 1553 1555 1557 1559 1560 1562 1563 1564 1566
1506 1505 1506 1506 1506 1506 1505 1505 1506 1506 1507 1507 1507 1507 1507 1508 1509 1509 1510 1511 1513 1515 1516 1518 1520 1522 1524 1526 1528 1530 1531 1533 1535 1538 1540 1542 1544 1546 1548 1550 1552 1554 1556 1558 1559 1561 1562 1564 1566
1506 1505 1505 1505 1505 1505 1505 1505 1505 1505 1505 1506 1506 1505 1506 1507 1507 1508 1509 1511 1512 1513 1514 1516 1518 1520 1522 1523 1525 1527 1529 1531 1533 1536 1538 1540 1542 1544 1547 1549 1551 1553 1555 1557 1558 1560 1562 1563 1565
1505 1505 1504 1504 1504 1504 1504 1504 1505 1503 1504 1504 1504 1504 1504 1505 1506 1506 1507 1508 1510 1511 1512 1514 1516 1518 1519 1521 1523 1525 1527 1529 1531 1533 1536 1538 1541 1543 1545 1547 1549 1552 1554 1556 1558 1559 1561 1563 1564
1505 1505 1504 1503 1503 1503 1504 1505 1503 1502 1502 1502 1502 1502 1503 1503 1504 1504 1505 1506 1507 1508 1510 1511 1513 1515 1517 1518 1520 1522 1525 1527 1529 1531 1533 1536 1538 1541 1543 1545 1548 1550 1552 1554 1556 1558 1560 1562 1563
1505 1507 1508 1503 1503 1502 1506 1506 1501 1500 1500 1500 1500 1500 1501 1501 1501 1502 1503 1504 1505 1506 1507 1509 1511 1512 1514 1516 1517 1519 1522 1524 1527 1529 1531 1533 1536 1538 1541 1543 1545 1548 1550 1553 1554 1556 1558 1560 1562
1510 1512 1509 1505 1502 1502 1504 1503 1499 1498 1498 1498 1498 1498 1499 1498 1499 1500 1500 1501 1502 1503 1504 1506 1508 1509 1511 1513 1515 1517 1519 1521 1524 1526 1528 1531 1533 1536 1538 1541 1543 1546 1548 1550 1552 1554 1556 1558 1560
1513 1511 1508 1506 1502 1502 1503 1501 1497 1497 1497 1496 1496 1496 1496 1496 1496 1497 1498 1498 1500 1501 1502 1503 1505 1507 1509 1510 1512 1514 1516 1518 1521 1523 1525 1528 1531 1533 1536 1538 1540 1543 1546 1548 1550 1552 1555 1557 1559
1509 1508 1508 1504 1501 1502 1502 1499 1495 1494 1494 1494 1493 1494 1494 1494 1494 1495 1495 1496 1497 1498 1499 1500 1502 1504 1506 1507 1509 1510 1512 1515 1517 1520 1522 1525 1527 1530 1532 1535 1537 1540 1542 1545 1548 1550 1552 1555 1557
1509 1509 1508 1503 1501 1502 1501 1498 1493 1492 1492 1492 1491 1491 1491 1491 1491 1491 1492 1492 1493 1494 1495 1497 1499 1501 1502 1504 1506 1508 1510 1512 1514 1517 1519 1522 1524 1527 1529 1531 1533 1537 1539 1542 1545 1547 1549 1552 1554
1508 1509 1507 1505 1501 1500 1501 1498 1493 1490 1490 1490 1489 1489 1489 1488 1488 1488 1488 1489 1489 1491 1492 1494 1496 1498 1500 1502 1504 1506 1508 1509 1511 1513 1515 1518 1521 1523 1526 1528 1530 1533 1536 1539 1541 1543 1545 1548 1551
1507 1505 1504 1502 1507 1508 1504 1505 1494 1490 1489 1488 1487 1487 1487 1486 1486 1485 1485 1486 1486 1488 1489 1491 1493 1495 1497 1498 1501 1502 1503 1505 1507 1509 1512 1514 1517 1519 1522 1524 1527 1530 1533 1535 1538 1541 1543 1545 1548
1507 1503 1502 1502 1506 1510 1507 1508 1498 1492 1490 1487 1486 1486 1485 1484 1483 1482 1482 1482 1483 1485 1486 1488 1490 1492 1494 1495 1497 1499 1501 1503 1505 1507 1509 1511 1513 1515 1517 1521 1524 1526 1529 1532 1535 1538 1540 1543 1545
1505 1503 1502 1504 1508 1513 1506 1508 1500 1495 1490 1487 1485 1485 1484 1483 1481 1480 1480 1480 1481 1482 1483 1485 1486 1488 1491 1492 1494 1495 1498 1499 1501 1503 1505 1508 1509 1512 1514 1517 1520 1523 1526 1529 1532 1534 1537 1540 1542
1508 1511 1515 1514 1516 1509 1502 1503 1499 1491 1488 1486 1485 1484 1483 1481 1479 1478 1477 1478 1478 1479 1480 1481 1483 1485 1487 1489 1490 1492 1495 1497 1498 1500 1502 1504 1506 1508 1510 1513 1516 1519 1522 1525 1528 1531 1534 1536 1539
1512 1514 1520 1519 1516 1511 1504 1502 1496 1490 1487 1486 1484 1483 1481 1479 1478 1476 1476 1476 1476 1477 1477 1479 1480 1481 1483 1485 1487 1489 1491 1493 1495 1497 1499 1501 1502 1505 1507 1509 1512 1515 1518 1522 1525 1527 1530 1533 1535
1513 1515 1515 1520 1519 1519 1509 1502 1494 1488 1487 1486 1484 1482 1480 1478 1477 1475 1474 1474 1474 1475 1475 1476 1477 1478 1480 1481 1483 1485 1487 1490 1492 1494 1496 1497 1499 1501 1504 1505 1507 1511 1514 1517 1520 1523 1526 1529 1531
1514 1515 1518 1521 1520 1516 1509 1506 1501 1494 1491 1488 1486 1484 1481 1479 1476 1474 1473 1473 1473 1473 1473 1474 1475 1476 1477 1479 1480 1482 1484 1486 1488 1490 1492 1493 1495 1497 1500 1501 1503 1506 1510 1513 1516 1519 1522 1525 1527
1518 1519 1519 1521 1520 1518 1513 1506 1496 1495 1492 1490 1487 1485 1482 1479 1476 1474 1473 1472 1472 1471 1472 1471 1472 1473 1473 1475 1477 1479 1480 1482 1484 1486 1488 1490 1492 1494 1496 1497 1500 1503 1505 1508 1511 1514 1517 1520 1523
1518 1520 1521 1522 1521 1520 1518 1509 1494 1493 1491 1489 1487 1484 1481 1479 1476 1474 1472 1471 1470 1470 1469 1469 1469 1470 1471 1472 1474 1475 1477 1479 1480 1482 1484 1486 1488 1490 1492 1494 1497 1499 1501 1504 1507 1510 1513 1515 1518